User: anonymous
Location: Melbourne
(37.8170°S, 144.9670°E)
Time: 18:04:03
(UTC+10:00)
Language:

ERBS - Orbit

View from above orbital plane
View from above orbital plane
View from above satellite
View from above satellite

Ground track
Ground track

The orbit data is extracted from the following two-line orbital elements,

1 15354U 84108B   14203.68965788  .00002127  00000-0  86838-4 0  5351
2 15354 057.0148 344.3752 0011132 264.7928 095.1850 15.28835258635053
Epoch (UTC): 22 July 2014 16:33:06
Eccentricity: 0.0011132
inclination: 57.0148°
perigee height: 471 km
apogee height: 487 km
right ascension of ascending node: 344.3752°
argument of perigee: 264.7928°
revolutions per day: 15.28835258
mean anomaly at epoch: 95.1850°
orbit number at epoch: 63505

The dashed part of the orbit path shows where the satellite is in the earth's shadow,  

DLR